Regional Weather Roundup
Issued by NWS State College, PA

Home | Current Version | Previous Version | Graphics & Text | Print | Product List | Glossary Off
Versions: 1 2 3 4 5 6 7 8 9 10 11 12 13 14 15 16 17 18 19 20 21 22 23 24 25 26 27 28 29 30 31 32 33 34 35 36 37 38 39 40 41 42 43 44 45 46 47 48 49 50

000
ASUS41 KCTP 182010
RWRCTP

REGIONAL WEATHER ROUNDUP
NATIONAL WEATHER SERVICE STATE COLLEGE PA
400 PM EDT FRI AUG 18 2017

Note: "fair" indicates few or no clouds below 12,000 feet with no
significant weather and/or obstructions to visibility.

* = STATION THAT DOES NOT REPORT PRECIPITATION /E.G. RAIN...SNOW...ETC/
    THUNDER OR FOG.

PAZ002>004-007>009-013>016-020>023-029>032-182100-
WESTERN PENNSYLVANIA

CITY           SKY/WX    TMP DP  RH WIND       PRES   REMARKS
ERIE           PTSUNNY   78  66  66 W17G26    29.79S
MEADVILLE      PTSUNNY   81  63  54 SW10G22   29.82S
FRANKLIN*      MOSUNNY   82  63  51 W12G18    29.82F
NEW CASTLE     FAIR      85  63  47 SW15G23   29.82S
BEAVER COUNTY  MOSUNNY   86  59  39 W13G21    29.84S
BUTLER*        SUNNY     82  63  51 W12       29.83S
PITTSBURGH INT MOSUNNY   84  65  52 W14G21    29.83S
PITTSBURGH     MOSUNNY   81  65  58 W13G21    29.82F
INDIANA*       MOSUNNY   82  73  74 W10       29.84F
LATROBE        PTSUNNY   82  72  69 SW13G20   29.83F
WASHINGTON CO* PTSUNNY   82  66  57 W8G17     29.85S
$$

PAZ004>006-010>012-017>019-024>028-033>037-041-042-045-046-049>053-182100-
CENTRAL PENNSYLVANIA

CITY           SKY/WX    TMP DP  RH WIND       PRES   REMARKS
BRADFORD       MOSUNNY   81  62  52 W14G23    29.82S
DUBOIS         PTSUNNY   82  63  52 W12G23    29.81F
CLEARFIELD     MOSUNNY   83  69  62 SW10      29.80F
JOHNSTOWN      PTSUNNY   78  68  71 W14G23    29.88F
ALTOONA        MOSUNNY   79  73  82 S8        29.84F
STATE COLLEGE  MOSUNNY   81  75  83 S9        29.80F
WILLIAMSPORT   CLOUDY    83  74  74 CALM      29.74F
SELINSGROVE    LGT RAIN  78  76  93 CALM      29.76F
FT INDIANTOWN  PTSUNNY   76  76 100 W6        29.78R
CAPITAL CITY   CLOUDY    80  74  81 SW3       29.76F
HARRISBURG     LGT RAIN  78  76  93 CALM      29.76R
YORK           TSTM      79  76  90 W6        29.77R
$$

PAZ038>040-043-044-047-048-054-055-060>062-067>071-182100-
EASTERN PENNSYLVANIA

CITY           SKY/WX    TMP DP  RH WIND       PRES   REMARKS
SCRANTON       CLOUDY    80  74  81 W6        29.79F
MOUNT POCONO   LGT RAIN  76  73  91 S8        29.85F
ALLENTOWN      TSTM      83  74  74 SE3       29.77F
QUAKERTOWN*    CLOUDY    82  75  78 SE5       29.79F
READING        TSTM      75  74  96 W18G35    29.77R VSB 1/8
LANCASTER      TSTM      78  75  90 NW24G41   29.79R VSB 1
COATESVILLE    PTCLDY    84  77  79 CALM      29.79F
POTTSTOWN      MOSUNNY   85  75  72 VRB6      29.78F
BLUE BELL      MOSUNNY   86  77  74 S8G16     29.77F HX  97
DOYLESTOWN     PTSUNNY   83  75  77 VRB5      29.77F
WILLOW GROVE   NOT AVBL
NORTH PHILA    MOSUNNY   90  77  65 SW7       29.77F HX 103
PHILADELPHIA   PTSUNNY   89  77  67 S9        29.76F HX 101
$$




USA.gov is the U.S. government's official web portal to all federal, state and local government web resources and services.